N3OUC-2 Weather Reports


Display with metric or nautical units.
time (UTC)temp
F
wind
direction
speed
MPH
gust
MPH
rain 1hr
in
rain 24hr
in
rain mn
in
humidity
%
barometer
mb
20260504082004 43 182 0.0 3.0 0.00 0.00 0.00 69 1013.9
20260504081004 43 182 0.0 3.0 0.00 0.00 0.00 67 1013.9
20260504050005 51 195 4.0 10.0 0.00 0.00 0.00 47 1013.7
20260504044005 52 193 2.0 5.0 0.00 0.00 0.00 47 1013.8
20260504043006 53 235 4.0 9.0 0.00 0.00 0.00 45 1013.7
20260504041006 53 238 3.0 9.0 0.00 0.00 0.00 43 1013.5
20260504040005 53 222 6.0 10.0 0.00 0.00 0.00 43 1013.4
20260504035006 53 229 7.0 12.0 0.00 0.00 0.00 43 1013.3
20260504034007 53 234 3.0 13.0 0.00 0.00 0.00 43 1013.1
20260504033006 53 255 4.0 12.0 0.00 0.00 0.00 43 1013.1
20260504031006 53 250 3.0 9.0 0.00 0.00 0.00 44 1013.1
20260504030005 53 228 4.0 10.0 0.00 0.00 0.00 43 1013.0
20260504025006 54 242 3.0 9.0 0.00 0.00 0.00 43 1013.0
20260504024005 54 239 5.0 12.0 0.00 0.00 0.00 43 1013.0
20260504023005 53 224 5.0 13.0 0.00 0.00 0.00 43 1013.2
20260504021005 53 239 5.0 9.0 0.00 0.00 0.00 44 1013.1
20260504020005 53 247 4.0 12.0 0.00 0.00 0.00 44 1013.0
20260504015005 54 181 3.0 12.0 0.00 0.00 0.00 43 1013.1
20260504014005 54 219 5.0 14.0 0.00 0.00 0.00 43 1013.0
20260504011005 53 219 5.0 15.0 0.00 0.00 0.00 44 1012.8
20260504010005 53 205 5.0 12.0 0.00 0.00 0.00 44 1012.8
20260504005005 53 243 5.0 8.0 0.00 0.00 0.00 44 1012.7
20260504004006 53 224 5.0 9.0 0.00 0.00 0.00 45 1012.5
20260504003005 53 223 3.0 5.0 0.00 0.00 0.00 44 1012.4
20260504002005 54 230 1.0 3.0 0.00 0.00 0.00 43 1012.2
20260504001005 55 240 2.0 7.0 0.00 0.00 0.00 42 1012.1
20260504000005 56 217 3.0 10.0 0.00 0.00 0.00 40 1012.0
20260503235005 56 247 6.0 12.0 0.00 0.00 0.00 39 1011.9
20260503234005 57 251 7.0 14.0 0.00 0.00 0.00 38 1011.9
20260503233006 58 269 5.0 14.0 0.00 0.00 0.00 38 1011.8
20260503231005 58 244 4.0 14.0 0.00 0.00 0.00 38 1011.6
20260503230006 59 285 8.0 16.0 0.00 0.00 0.00 35 1011.6
20260503225005 59 254 9.0 20.0 0.00 0.00 0.00 36 1011.6
20260503224005 59 283 9.0 22.0 0.00 0.00 0.00 36 1011.6
20260503223005 60 285 8.0 18.0 0.00 0.00 0.00 35 1011.5
20260503222005 60 274 12.0 18.0 0.00 0.00 0.00 35 1011.6
20260503221005 60 247 7.0 16.0 0.00 0.00 0.00 36 1011.6
20260503215005 59 247 10.0 20.0 0.00 0.00 0.00 35 1011.5
20260503214005 58 254 5.0 18.0 0.00 0.00 0.00 36 1011.5
20260503213005 58 260 9.0 17.0 0.00 0.00 0.00 36 1011.5
20260503211005 60 258 14.0 26.0 0.00 0.00 0.00 31 1011.4
20260503210005 60 291 11.0 22.0 0.00 0.00 0.00 31 1011.3
20260503205005 60 278 13.0 26.0 0.00 0.00 0.00 32 1011.4
20260503204005 59 275 15.0 24.0 0.00 0.00 0.00 32 1011.5
20260503203005 60 281 14.0 22.0 0.00 0.00 0.00 33 1011.6
20260503202005 59 279 14.0 26.0 0.00 0.00 0.00 32 1011.7
20260503201005 59 288 15.0 25.0 0.00 0.00 0.00 34 1011.7
20260503200005 59 291 13.0 20.0 0.00 0.00 0.00 34 1011.9
20260503195005 59 274 10.0 21.0 0.00 0.00 0.00 37 1011.9
20260503193005 58 253 13.0 26.0 0.00 0.00 0.00 36 1012.2
20260503192004 57 278 10.0 24.0 0.00 0.00 0.00 40 1012.3
20260503191006 56 305 13.0 20.0 0.00 0.00 0.00 35 1012.5
20260503190005 57 311 14.0 29.0 0.00 0.00 0.00 35 1012.5
20260503185005 57 305 13.0 20.0 0.00 0.00 0.00 36 1012.6
20260503184005 56 311 7.0 23.0 0.00 0.00 0.00 40 1012.7
20260503183005 56 287 13.0 30.0 0.00 0.00 0.00 37 1012.8
20260503181004 55 268 14.0 25.0 0.00 0.00 0.00 42 1012.9
20260503180005 55 289 10.0 21.0 0.00 0.00 0.00 38 1012.8
20260503175005 55 290 13.0 23.0 0.00 0.00 0.00 39 1013.0
20260503173005 54 287 11.0 23.0 0.00 0.00 0.00 41 1013.1
20260503172005 55 275 15.0 25.0 0.00 0.00 0.00 40 1013.2
20260503171005 55 320 9.0 20.0 0.00 0.00 0.00 41 1013.2
20260503151005 49 317 10.0 17.0 0.00 0.00 0.00 47 1014.1